Lexington Weather

Lexington, Massachusetts, USA

46°F
10/26/2020 6:09am 
  • Lexington Conditions: Light rain, Overcast
  • Temperature: 46.2°F / 7.9°CWarmer 1.1°F than last hour.
  • Dew Point: 41.9°FIncreased 2.2°Fsince last hour.
  • Relative Humidity: 85%Increased 4.0% since last hour.
  • Wind: Wind from N N 2 mph, 10-min avg: 1 mph, gust: 4 mph
  • Barometer: 30.27 in Steady
  • Visibility: 10 miles
  • Rain Today: 0.00 in
  •   

Regional Weather Roundup
for Boston / Norton, MA

        
000
ASUS41 KBOX 240904
RWRBOX

REGIONAL WEATHER ROUNDUP
NATIONAL WEATHER SERVICE BOSTON/NORTON MA
500 AM EDT SAT OCT 24 2020

NOTE:  "FAIR" INDICATES FEW OR NO CLOUDS BELOW 12,000 FEET WITH NO 
SIGNIFICANT WEATHER AND/OR OBSTRUCTIONS TO VISIBILITY.

MAZALL-241000-
EASTERN MASSACHUSETTS
  
CITY           SKY/WX    TMP DP  RH WIND       PRES   REMARKS
BOSTON         CLOUDY    55  53  93 S6        30.00F                  
BEVERLY        CLOUDY    56  53  90 S5        29.99F                  
LAWRENCE       CLOUDY    57  53  86 VRB6      30.00F                  
BEDFORD        CLOUDY    55  53  93 S6        29.98F                  
BLUE HILL        N/A     53  52  96 SW5       29.99S                  
NORWOOD        CLOUDY    57  53  86 CALM      29.99F                  
MARSHFIELD     CLOUDY    57  55  94 CALM      29.99S                  
PLYMOUTH       CLOUDY    56  53  90 CALM      30.00S                  
TAUNTON        CLOUDY    57  53  86 CALM      29.99F                  
NEW BEDFORD    CLOUDY    58  53  84 W5        29.99F                  
$$

MAZALL-241000-
CAPE COD AND THE ISLANDS
  
CITY           SKY/WX    TMP DP  RH WIND       PRES   REMARKS
FALMOUTH       CLOUDY    55  55 100 CALM      29.99                   
HYANNIS        CLOUDY    58  55  90 CALM      29.97F                  
CHATHAM        CLOUDY    59  54  83 CALM      30.00F                  
PROVINCETOWN   CLOUDY    57  53  86 S3        30.00F                  
NANTUCKET      CLOUDY   N/A N/A N/A CALM      29.98F                  
MARTHAS VNYRD  CLOUDY    56  53  90 CALM      29.99F                  
$$
 
MAZALL-241000-
CENTRAL AND WESTERN MASSACHUSETTS
  
CITY           SKY/WX    TMP DP  RH WIND       PRES   REMARKS
WORCESTER      FOG       55  54  96 S5        29.98F VSB 1/4          
FITCHBURG      CLOUDY    55  54  96 SE8       29.98F FOG              
ORANGE         CLOUDY    60  57  89 S6        29.96F                  
SPRINGFIELD    CLOUDY    59  57  94 S7        29.94F                  
WESTFIELD      MOCLDY    59  58  96 S6        29.95F                  
NORTH ADAMS    CLOUDY    64  55  72 VRB5      29.91F                  
PITTSFIELD     CLOUDY    60  55  83 S7        29.92F                  
$$
 
RIZALL-241000-
RHODE ISLAND
  
CITY           SKY/WX    TMP DP  RH WIND       PRES   REMARKS
PROVIDENCE     CLOUDY    57  54  89 CALM      30.00F                  
NEWPORT        CLOUDY    57  53  86 CALM      29.98F                  
BLOCK ISLAND   CLOUDY    57  54  89 SW3       29.99F                  
SMITHFIELD     CLOUDY    55  54  96 CALM        N/A                   
WESTERLY       CLOUDY    56  53  90 CALM      29.99F                  
$$
 
CTZALL-241000-
CONNECTICUT
  
CITY           SKY/WX    TMP DP  RH WIND       PRES   REMARKS
BRADLEY INTL   CLOUDY    60  58  92 S8        29.95F                  
HARTFORD       CLOUDY    60  57  89 SE6       29.96F                  
BRIDGEPORT     CLOUDY    64  60  87 SW8       29.97F                  
DANBURY        CLOUDY    61  58  90 S5          N/A                   
GROTON         CLOUDY    60  54  80 S8        29.98S                  
NEW HAVEN      CLOUDY    64  62  93 S3        29.97F                  
CHESTER        CLOUDY    59  59 100 CALM      29.99S                  
MERIDEN        CLOUDY    60  58  92 S5        29.97F                  
WILLIMANTIC    CLOUDY    57  54  89 SW3       30.00R                  
OXFORD         CLOUDY    59  59 100 SW5       29.98F FOG              
$$

MEZ002-015-021-024-NHZ003-005-008-011-012-014-VTZ005-008-241000-
NORTHERN NEW ENGLAND
  
CITY           SKY/WX    TMP DP  RH WIND       PRES   REMARKS
PORTLAND ME    CLOUDY    55  53  93 S8        29.98F                  
BANGOR ME      CLOUDY    54  51  90 S13       29.98F                  
CONCORD NH     CLOUDY    55  53  93 SE8       29.96F FOG              
MANCHESTER NH  CLOUDY    57  52  83 S10       29.95F                  
NASHUA NH      CLOUDY    55  55 100 SE6       29.97F FOG              
PORTSMOUTH NH  CLOUDY    55  55  99 S8        29.96  FOG              
JAFFREY NH     CLOUDY    57  55  93 S6        29.96F                  
KEENE NH       CLOUDY    60  56  86 S8        29.94F                  
BURLINGTON VT  MOCLDY    65  55  70 S18G26    29.80F                  
MT. WASHINGTON NOT AVBL                                               
$$

NYZ052-076-241000-
EASTERN NEW YORK
  
CITY           SKY/WX    TMP DP  RH WIND       PRES   REMARKS
ALBANY         MOCLDY    59  57  93 S10       29.90F                  
NEW YORK CITY  CLOUDY    65  58  78 S7        29.97F                  
$$
 
ANZALL-241000-
MARINE OBSERVATIONS
  
STATION/POSITION TIME  TEMP    WIND        PRES    VSBY  WAVE
                       AIR SEA DIR/SP/G                  HT/PER
                 (UTC) (F)     (DEG/KT/KT) (MB)    (MI)  (FT/S)
BOSTON BUOY      0850   56 58  250/  8/  8 1014.6F         5/11
BUZZARDS BAY     0800          110/  3/  3 1016.9F
NANTUCKET SOUND  0850      62  140/  2/  2   N/A           1/ 6
MASS BAY-STELLWA 0804   58 58  210/  6/  8 1015.0F  1 7/8  4/11
ISLE OF SHOALS   0800   56     210/ 10/ 12 1015.7F
S OF BLOCK IS    0826      63                N/A           6/13
$$

......................KEY.........................
  SKY/WX - SKY CONDITION/PRESENT WEATHER
  TMP    - TEMPERATURE IN FAHRENHEIT
  DWPT   - DEWPOINT IN FAHRENHEIT
  RH     - RELATIVE HUMIDITY IN PERCENT
  WIND   - DIRECTION AND SPEED IN MPH
  PRES   - MEAN SEA LEVEL PRESSURE IN INCHES OF HG
  WCI    - WIND CHILL INDEX
  VSB    - VISIBILITY IN MILES
  HX     - HEAT INDEX
  TC     - TEMPERATURE IN CELSIUS
  VRB    - VARIABLE WIND DIRECTION
  N/A    - NOT AVAILABLE
  
      

Other recent Regional Weather Roundups

Mon Oct 26, 5:04am

Mon Oct 26, 4:04am

Mon Oct 26, 3:04am

Mon Oct 26, 2:04am

Mon Oct 26, 1:04am

Mon Oct 26, 12:04am

Sun Oct 25, 11:05pm

Sun Oct 25, 10:04pm

Sun Oct 25, 9:04pm

Sun Oct 25, 8:04pm

Sun Oct 25, 7:04pm

Sun Oct 25, 6:04pm

Sun Oct 25, 5:04pm

Sun Oct 25, 4:05pm

Sun Oct 25, 3:04pm

Sun Oct 25, 2:04pm

Sun Oct 25, 1:04pm

Sun Oct 25, 12:04pm

Sun Oct 25, 11:04am

Sun Oct 25, 10:04am

Sun Oct 25, 9:04am

Sun Oct 25, 8:04am

Sun Oct 25, 7:04am

Sun Oct 25, 6:04am

Sun Oct 25, 5:04am

Sun Oct 25, 4:04am

Sun Oct 25, 3:04am

Sun Oct 25, 2:04am

Sun Oct 25, 1:05am

Sun Oct 25, 12:04am

Sat Oct 24, 11:04pm

Sat Oct 24, 10:04pm

Sat Oct 24, 9:04pm

Sat Oct 24, 8:04pm

Sat Oct 24, 7:04pm

Sat Oct 24, 6:04pm

Sat Oct 24, 5:05pm

Sat Oct 24, 4:04pm

Sat Oct 24, 3:04pm

Sat Oct 24, 2:04pm

Sat Oct 24, 1:05pm

Sat Oct 24, 12:04pm

Sat Oct 24, 11:05am

Sat Oct 24, 10:05am

Sat Oct 24, 9:04am

Sat Oct 24, 8:04am

Sat Oct 24, 7:04am

Sat Oct 24, 6:04am

Sat Oct 24, 4:04am

Sat Oct 24, 3:04am

Sat Oct 24, 2:04am

Sat Oct 24, 1:05am

Sat Oct 24, 12:04am

Fri Oct 23, 11:04pm

Fri Oct 23, 10:04pm

Fri Oct 23, 9:04pm

Fri Oct 23, 8:05pm

Fri Oct 23, 7:04pm

Fri Oct 23, 6:04pm

Fri Oct 23, 5:05pm

Fri Oct 23, 4:04pm

Fri Oct 23, 3:04pm

Fri Oct 23, 2:05pm

Fri Oct 23, 1:04pm

Fri Oct 23, 12:04pm

Fri Oct 23, 11:04am

Fri Oct 23, 10:04am

Fri Oct 23, 9:04am

Fri Oct 23, 8:04am

Fri Oct 23, 7:04am

Fri Oct 23, 6:04am

Fri Oct 23, 5:04am

Fri Oct 23, 4:04am

Fri Oct 23, 3:04am

Fri Oct 23, 2:04am

Fri Oct 23, 1:04am

Fri Oct 23, 12:04am

Thu Oct 22, 11:04pm

Thu Oct 22, 10:04pm

Thu Oct 22, 9:05pm

Thu Oct 22, 8:04pm

Thu Oct 22, 7:05pm

Thu Oct 22, 6:04pm

Thu Oct 22, 5:04pm

Thu Oct 22, 4:05pm

Thu Oct 22, 3:04pm

Thu Oct 22, 2:05pm

Thu Oct 22, 1:04pm

Thu Oct 22, 12:04pm

Thu Oct 22, 11:04am

Thu Oct 22, 10:05am

Thu Oct 22, 9:04am

Thu Oct 22, 8:05am

Thu Oct 22, 7:04am

Thu Oct 22, 6:04am

Thu Oct 22, 5:04am

Thu Oct 22, 4:04am

Thu Oct 22, 3:04am

Thu Oct 22, 2:04am

Thu Oct 22, 1:04am

Thu Oct 22, 12:04am

Wed Oct 21, 11:05pm

Wed Oct 21, 10:04pm

Wed Oct 21, 9:04pm

Wed Oct 21, 8:04pm

Wed Oct 21, 7:04pm

Wed Oct 21, 6:04pm

Wed Oct 21, 5:05pm

Wed Oct 21, 4:04pm

Wed Oct 21, 3:04pm

Wed Oct 21, 2:05pm

Wed Oct 21, 1:04pm

Wed Oct 21, 12:04pm

Wed Oct 21, 11:04am

Wed Oct 21, 10:04am

Wed Oct 21, 9:04am

Wed Oct 21, 8:04am

Wed Oct 21, 7:04am

Wed Oct 21, 6:04am

Wed Oct 21, 5:04am

Wed Oct 21, 4:04am

Wed Oct 21, 3:04am

Wed Oct 21, 2:04am

Wed Oct 21, 1:04am

Wed Oct 21, 12:04am

Tue Oct 20, 11:05pm

Tue Oct 20, 10:04pm

Tue Oct 20, 9:04pm

Tue Oct 20, 8:05pm

Tue Oct 20, 7:04pm

Tue Oct 20, 6:04pm

Tue Oct 20, 5:05pm

Tue Oct 20, 4:04pm

Tue Oct 20, 3:05pm

Tue Oct 20, 2:07pm

Tue Oct 20, 1:04pm

Tue Oct 20, 12:04pm

Tue Oct 20, 11:04am

Tue Oct 20, 10:05am

Tue Oct 20, 9:04am

Tue Oct 20, 8:04am

Tue Oct 20, 7:04am

Tue Oct 20, 6:04am

Tue Oct 20, 5:04am

Tue Oct 20, 4:04am

Tue Oct 20, 3:04am

Tue Oct 20, 2:04am

Tue Oct 20, 1:04am

Tue Oct 20, 12:04am

Mon Oct 19, 11:04pm

Mon Oct 19, 10:04pm

Mon Oct 19, 9:04pm

Mon Oct 19, 8:04pm

Mon Oct 19, 7:04pm

Mon Oct 19, 6:04pm

Mon Oct 19, 5:04pm

Mon Oct 19, 4:04pm

Mon Oct 19, 3:04pm

Mon Oct 19, 2:04pm

Mon Oct 19, 1:05pm

Mon Oct 19, 12:04pm

Mon Oct 19, 11:04am

Mon Oct 19, 10:04am

Mon Oct 19, 9:04am

Mon Oct 19, 8:04am

Mon Oct 19, 7:04am

Mon Oct 19, 6:04am

Mon Oct 19, 5:04am

Meta data:

ID: 6fdb1bec-759d-4c93-9d96-9c400ec7adea
Link: https://api.weather.gov/products/6fdb1bec-759d-4c93-9d96-9c400ec7adea